Regional Weather Roundup
Issued by NWS

Home | Current Version | Previous Version | Graphics & Text | Print | Product List | Glossary On
Versions: 1 2 3 4 5 6 7 8 9 10 11 12 13 14 15 16 17 18 19 20 21 22 23 24 25 26 27 28 29 30 31 32 33 34 35 36 37 38 39 40 41 42 43 44 45 46 47 48 49 50
000
ASUS43 KIND 171509
RWRIN

WEATHER ROUNDUP FOR INDIANA
NATIONAL WEATHER SERVICE INDIANAPOLIS IN
1000 AM EST SUN DEC 17 2017

NOTE: "FAIR" INDICATES FEW OR NO CLOUDS BELOW 12,000 FEET WITH NO
SIGNIFICANT WEATHER AND/OR OBSTRUCTIONS TO VISIBILITY.

* - STATION DOES NOT REPORT WEATHER SUCH AS PRECIPITATION OR FOG.

+ - STATION NOT QUALITY CONTROLLED BY THE NATIONAL WEATHER SERVICE.
    USE DATA WITH CAUTION...ESPECIALLY DEWPOINT AND RELATIVE
    HUMIDITY OBSERVATIONS.

INZ001>003-010>013-019-020-171600-
NORTHWEST INDIANA

CITY           SKY/WX    TMP DP  RH WIND       PRES   REMARKS
GARY /AIRPORT/ CLOUDY    34  30  86 SE7       30.05F WCI  28
KNOX *+        CLOUDY    34  30  86 E6        30.05F WCI  29
LA PORTE +     CLOUDY    31  28  88 E6        30.05F WCI  25
MICHIGAN CITY+ CLOUDY    32  28  86 E3        30.06F
MONTICELLO +   CLOUDY    36  29  78 CALM      30.05F
RENSSELAER +   CLOUDY    36  30  80 S5        30.07R WCI  32
VALPARAISO     CLOUDY    34  30  85 E6        30.05F WCI  29

$$

LMZ046-743>745-171600-
SOUTHERN LAKE MICHIGAN

STATION/POSITION TIME  TEMP    WIND        PRES    WAVE
                       AIR SEA DIR/SP/G            HT
                 (UTC) (F)     (DEG/KT/KT) (MB)    (FT)
BURNS HARBOR     1440   36      CALM  /  3 1017.9F
MICHIGAN CITY    1440   33     110/  6/  8   N/A

$$

INZ004-005-014>016-021>024-171600-
NORTH CENTRAL INDIANA

CITY           SKY/WX    TMP DP  RH WIND       PRES   REMARKS
GOSHEN         CLOUDY    30  26  85 E7        30.09F FOG     WCI  23
LOGANSPORT +   CLOUDY    34  32  93 SE5       30.07F WCI  30
PERU/GRISSOM   CLOUDY    36  32  86 SE6       30.05F WCI  31
ROCHESTER +    PTSUNNY   36  32  87 SE5       30.07F WCI  32
SOUTH BEND     CLOUDY    29  27  92 E8        30.08F FOG     WCI  21
WARSAW +       CLOUDY    32  28  86 E6        30.09F FOG     WCI  26

$$

INZ006>009-017-018-025>027-171600-
NORTHEAST INDIANA

CITY           SKY/WX    TMP DP  RH WIND       PRES   REMARKS
AUBURN +       CLOUDY    30  30 100 E6        30.13F FOG     WCI  24
FORT WAYNE     CLOUDY    29  27  92 NE6       30.11F FOG     WCI  23
HUNTINGTON +   CLOUDY    31  30  94 NE5       30.09F WCI  27
KENDALLVILLE + CLOUDY    29  29 100 E6        30.11F FOG     WCI  23

$$

INZ028-029-035-036-043>045-051>053-171600-
WEST CENTRAL INDIANA

CITY           SKY/WX    TMP DP  RH WIND       PRES   REMARKS
CRAWFORDSVL +  CLOUDY    38  31  75 S9        30.10R WCI  31
GREENCASTLE +  CLOUDY    41  30  65 S3        30.11R
LAFAYETTE      CLOUDY    38  31  76 SW5       30.09S WCI  34
TERRE HAUTE    CLOUDY    42  30  62 S7        30.12R

$$

INZ030>032-037>040-046>048-054>057-064-065-171600-
CENTRAL INDIANA

CITY           SKY/WX    TMP DP  RH WIND       PRES   REMARKS
COLUMBUS       CLOUDY    39  28  65 S7        30.12F WCI  34
FRANKFORT +    CLOUDY    41  33  72 S6        30.08F
INDIANAPOLIS   CLOUDY    40  31  70 S7        30.11F WCI  35
-EAGLE CREEK   CLOUDY    40  29  64 S5        30.09F WCI  37
KOKOMO +       CLOUDY    36  30  79 SE6       30.07F WCI  31
MARION +       MOSUNNY   36  30  80 S6        30.09F HAZE    WCI  31
MT COMFORT *+  CLOUDY    37  34  87 S7        30.09F WCI  32
SHELBYVILLE    CLOUDY    41  29  62 S12       30.09F
ZIONSVILLE +   CLOUDY    38  30  74 S6        30.09S WCI  33

$$

INZ033-034-041-042-049-050-058-059-171600-
EAST CENTRAL INDIANA

CITY           SKY/WX    TMP DP  RH WIND       PRES   REMARKS
MUNCIE         CLOUDY    40  29  64 S10       30.10F WCI  33
RICHMOND +     CLOUDY    34  32  93 SE8       30.12F WCI  27

$$

INZ060-061-067>069-081>083-085>088-171600-
SOUTHWEST INDIANA

CITY           SKY/WX    TMP DP  RH WIND       PRES   REMARKS
EVANSVILLE     LGT RAIN  42  35  76 S3        30.14F
HUNTINGBURG +  LGT RAIN  43  32  65 S10       30.15R
WASHINGTON +   DRIZZLE   41  31  67 S8        30.14R

$$

INZ062-063-066-070>080-084-089>092-171600-
SOUTH CENTRAL AND SOUTHEAST INDIANA

CITY           SKY/WX    TMP DP  RH WIND       PRES   REMARKS
BEDFORD +      RAIN      41  32  70 S6        30.14R
BLOOMINGTON    CLOUDY    42  30  62 S6        30.13R
MADISON *+     CLOUDY    41  30  65 SE7       30.16F
NORTH VERNON + CLOUDY    39  28  65 SE6       30.12F WCI  35

$$





USA.gov is the U.S. government's official web portal to all federal, state and local government web resources and services.